Year,Month,Day,Hour,Minute,Value (Times are PST for temperature in C)
2016,04,29,00,00,10.20
2016,04,29,00,01,10.30
2016,04,29,00,02,10.30
2016,04,29,00,03,10.20
2016,04,29,00,04,10.20
2016,04,29,00,05,10.20
2016,04,29,00,06,10.20
2016,04,29,00,07,10.20
2016,04,29,00,08,10.20
2016,04,29,00,09,10.20
2016,04,29,00,10,10.20
2016,04,29,00,11,10.20
2016,04,29,00,12,10.20
2016,04,29,00,13,10.20
2016,04,29,00,14,10.20
2016,04,29,00,15,10.20
2016,04,29,00,16,10.20
2016,04,29,00,17,10.10
2016,04,29,00,18,10.10
2016,04,29,00,19,10.10
2016,04,29,00,20,10.10
2016,04,29,00,21,10.10
2016,04,29,00,22,10.10
2016,04,29,00,23,10.10
2016,04,29,00,24,10.00
2016,04,29,00,25,10.00
2016,04,29,00,26,9.90
2016,04,29,00,27,9.90
2016,04,29,00,28,9.90
2016,04,29,00,29,9.80
2016,04,29,00,30,9.80
2016,04,29,00,31,9.80
2016,04,29,00,32,9.80
2016,04,29,00,33,9.80
2016,04,29,00,34,9.80
2016,04,29,00,35,9.80
2016,04,29,00,36,9.80
2016,04,29,00,37,9.80
2016,04,29,00,38,9.80
2016,04,29,00,39,9.80
2016,04,29,00,40,9.80
2016,04,29,00,41,9.80
2016,04,29,00,42,9.80
2016,04,29,00,43,9.80
2016,04,29,00,44,9.70
2016,04,29,00,45,9.70
2016,04,29,00,46,9.70
2016,04,29,00,47,9.80
2016,04,29,00,48,9.80
2016,04,29,00,49,9.80
2016,04,29,00,50,9.80
2016,04,29,00,51,9.90
2016,04,29,00,52,9.90
2016,04,29,00,53,9.90
2016,04,29,00,54,9.90
2016,04,29,00,55,9.90
2016,04,29,00,56,9.90
2016,04,29,00,57,9.90
2016,04,29,00,58,9.90
2016,04,29,00,59,9.90
2016,04,29,01,00,9.90
2016,04,29,01,01,9.90
2016,04,29,01,02,9.90
2016,04,29,01,03,9.90
2016,04,29,01,04,9.90
2016,04,29,01,05,9.90
2016,04,29,01,06,9.90
2016,04,29,01,07,9.90
2016,04,29,01,08,9.90
2016,04,29,01,09,9.80
2016,04,29,01,10,9.80
2016,04,29,01,11,9.80
2016,04,29,01,12,9.80
2016,04,29,01,13,9.70
2016,04,29,01,14,9.70
2016,04,29,01,15,9.80
2016,04,29,01,16,9.80
2016,04,29,01,17,9.80
2016,04,29,01,18,9.80
2016,04,29,01,19,9.80
2016,04,29,01,20,9.80
2016,04,29,01,21,9.80
2016,04,29,01,22,9.80
2016,04,29,01,23,9.80
2016,04,29,01,24,9.80
2016,04,29,01,25,9.80
2016,04,29,01,26,9.80
2016,04,29,01,27,9.80
2016,04,29,01,28,9.70
2016,04,29,01,29,9.70
2016,04,29,01,30,9.70
2016,04,29,01,31,9.70
2016,04,29,01,32,9.60
2016,04,29,01,33,9.60
2016,04,29,01,34,9.60
2016,04,29,01,35,9.60
2016,04,29,01,36,9.60
2016,04,29,01,37,9.50
2016,04,29,01,38,9.50
2016,04,29,01,39,9.50
2016,04,29,01,40,9.50
2016,04,29,01,41,9.40
2016,04,29,01,42,9.40
2016,04,29,01,43,9.40
2016,04,29,01,44,9.40
2016,04,29,01,45,9.40
2016,04,29,01,46,9.40
2016,04,29,01,47,9.40
2016,04,29,01,48,9.40
2016,04,29,01,49,9.40
2016,04,29,01,50,9.40
2016,04,29,01,51,9.40
2016,04,29,01,52,9.40
2016,04,29,01,53,9.50
2016,04,29,01,54,9.50
2016,04,29,01,55,9.50
2016,04,29,01,56,9.50
2016,04,29,01,57,9.50
2016,04,29,01,58,9.50
2016,04,29,01,59,9.50
2016,04,29,02,00,9.40
2016,04,29,02,01,9.40
2016,04,29,02,02,9.40
2016,04,29,02,03,9.40
2016,04,29,02,04,9.40
2016,04,29,02,05,9.30
2016,04,29,02,06,9.30
2016,04,29,02,07,9.30
2016,04,29,02,08,9.30
2016,04,29,02,09,9.30
2016,04,29,02,10,9.30
2016,04,29,02,11,9.30
2016,04,29,02,12,9.30
2016,04,29,02,13,9.30
2016,04,29,02,14,9.30
2016,04,29,02,15,9.30
2016,04,29,02,16,9.30
2016,04,29,02,17,9.30
2016,04,29,02,18,9.30
2016,04,29,02,19,9.30
2016,04,29,02,20,9.30
2016,04,29,02,21,9.30
2016,04,29,02,22,9.30
2016,04,29,02,23,9.30
2016,04,29,02,24,9.30
2016,04,29,02,25,9.30
2016,04,29,02,26,9.20
2016,04,29,02,27,9.20
2016,04,29,02,28,9.20
2016,04,29,02,29,9.20
2016,04,29,02,30,9.20
2016,04,29,02,31,9.20
2016,04,29,02,32,9.20
2016,04,29,02,33,9.20
2016,04,29,02,34,9.20
2016,04,29,02,35,9.10
2016,04,29,02,36,9.10
2016,04,29,02,37,9.10
2016,04,29,02,38,9.10
2016,04,29,02,39,9.10
2016,04,29,02,40,9.10
2016,04,29,02,41,9.10
2016,04,29,02,42,9.10
2016,04,29,02,43,9.10
2016,04,29,02,44,9.10
2016,04,29,02,45,8.90
2016,04,29,02,46,8.90
2016,04,29,02,47,8.90
2016,04,29,02,48,8.90
2016,04,29,02,49,8.80
2016,04,29,02,50,8.80
2016,04,29,02,51,8.80
2016,04,29,02,52,8.80
2016,04,29,02,53,8.80
2016,04,29,02,54,8.80
2016,04,29,02,55,8.80
2016,04,29,02,56,8.80
2016,04,29,02,57,8.80
2016,04,29,02,58,8.80
2016,04,29,02,59,8.80
2016,04,29,03,00,8.80
2016,04,29,03,01,8.70
2016,04,29,03,02,8.70
2016,04,29,03,03,8.70
2016,04,29,03,04,8.70
2016,04,29,03,05,8.70
2016,04,29,03,06,8.70
2016,04,29,03,07,8.70
2016,04,29,03,08,8.60
2016,04,29,03,09,8.60
2016,04,29,03,10,8.60
2016,04,29,03,11,8.50
2016,04,29,03,12,8.50
2016,04,29,03,13,8.40
2016,04,29,03,14,8.40
2016,04,29,03,15,8.40
2016,04,29,03,16,8.40
2016,04,29,03,17,8.30
2016,04,29,03,18,8.30
2016,04,29,03,19,8.30
2016,04,29,03,20,8.30
2016,04,29,03,21,8.20
2016,04,29,03,22,8.20
2016,04,29,03,23,8.20
2016,04,29,03,24,8.10
2016,04,29,03,25,8.10
2016,04,29,03,26,8.00
2016,04,29,03,27,8.00
2016,04,29,03,28,8.00
2016,04,29,03,29,8.00
2016,04,29,03,30,7.90
2016,04,29,03,31,7.90
2016,04,29,03,32,7.90
2016,04,29,03,33,7.90
2016,04,29,03,34,7.90
2016,04,29,03,35,7.80
2016,04,29,03,36,7.80
2016,04,29,03,37,7.80
2016,04,29,03,38,7.80
2016,04,29,03,39,7.80
2016,04,29,03,40,7.80
2016,04,29,03,41,7.70
2016,04,29,03,42,7.70
2016,04,29,03,43,7.70
2016,04,29,03,44,7.70
2016,04,29,03,45,7.70
2016,04,29,03,46,7.70
2016,04,29,03,47,7.60
2016,04,29,03,48,7.60
2016,04,29,03,49,7.60
2016,04,29,03,50,7.60
2016,04,29,03,51,7.60
2016,04,29,03,52,7.60
2016,04,29,03,53,7.60
2016,04,29,03,54,7.60
2016,04,29,03,55,7.60
2016,04,29,03,56,7.60
2016,04,29,03,57,7.50
2016,04,29,03,58,7.50
2016,04,29,03,59,7.50
2016,04,29,04,00,7.50
2016,04,29,04,01,7.50
2016,04,29,04,02,7.50
2016,04,29,04,03,7.50
2016,04,29,04,04,7.50
2016,04,29,04,05,7.40
2016,04,29,04,06,7.40
2016,04,29,04,07,7.40
2016,04,29,04,08,7.40
2016,04,29,04,09,7.40
2016,04,29,04,10,7.40
2016,04,29,04,11,7.40
2016,04,29,04,12,7.40
2016,04,29,04,13,7.30
2016,04,29,04,14,7.30
2016,04,29,04,15,7.30
2016,04,29,04,16,7.30
2016,04,29,04,17,7.30
2016,04,29,04,18,7.30
2016,04,29,04,19,7.30
2016,04,29,04,20,7.30
2016,04,29,04,21,7.30
2016,04,29,04,22,7.30
2016,04,29,04,23,7.30
2016,04,29,04,24,7.30
2016,04,29,04,25,7.20
2016,04,29,04,26,7.20
2016,04,29,04,27,7.20
2016,04,29,04,28,7.20
2016,04,29,04,29,7.20
2016,04,29,04,30,7.20
2016,04,29,04,31,7.20
2016,04,29,04,32,7.20
2016,04,29,04,33,7.20
2016,04,29,04,34,7.20
2016,04,29,04,35,7.20
2016,04,29,04,36,7.20
2016,04,29,04,37,7.10
2016,04,29,04,38,7.10
2016,04,29,04,39,7.10
2016,04,29,04,40,7.10
2016,04,29,04,41,7.10
2016,04,29,04,42,7.10
2016,04,29,04,43,7.10
2016,04,29,04,44,7.10
2016,04,29,04,45,7.10
2016,04,29,04,46,7.10
2016,04,29,04,47,7.00
2016,04,29,04,48,7.00
2016,04,29,04,49,7.00
2016,04,29,04,50,7.00
2016,04,29,04,51,7.00
2016,04,29,04,52,7.00
2016,04,29,04,53,7.00
2016,04,29,04,54,6.90
2016,04,29,04,55,6.90
2016,04,29,04,56,6.90
2016,04,29,04,57,6.90
2016,04,29,04,58,6.90
2016,04,29,04,59,6.90
2016,04,29,05,00,6.80
2016,04,29,05,01,6.80
2016,04,29,05,02,6.80
2016,04,29,05,03,6.80
2016,04,29,05,04,6.80
2016,04,29,05,05,6.80
2016,04,29,05,06,6.80
2016,04,29,05,07,6.80
2016,04,29,05,08,6.80
2016,04,29,05,09,6.80
2016,04,29,05,10,6.80
2016,04,29,05,11,6.80
2016,04,29,05,12,6.80
2016,04,29,05,13,6.80
2016,04,29,05,14,6.80
2016,04,29,05,15,6.80
2016,04,29,05,16,6.80
2016,04,29,05,17,6.80
2016,04,29,05,18,6.80
2016,04,29,05,19,6.80
2016,04,29,05,20,6.80
2016,04,29,05,21,6.80
2016,04,29,05,22,6.70
2016,04,29,05,23,6.70
2016,04,29,05,24,6.70
2016,04,29,05,25,6.70
2016,04,29,05,26,6.70
2016,04,29,05,27,6.70
2016,04,29,05,28,6.70
2016,04,29,05,29,6.70
2016,04,29,05,30,6.70
2016,04,29,05,31,6.70
2016,04,29,05,32,6.70
2016,04,29,05,33,6.70
2016,04,29,05,34,6.60
2016,04,29,05,35,6.60
2016,04,29,05,36,6.60
2016,04,29,05,37,6.60
2016,04,29,05,38,6.60
2016,04,29,05,39,6.60
2016,04,29,05,40,6.60
2016,04,29,05,41,6.60
2016,04,29,05,42,6.50
2016,04,29,05,43,6.50
2016,04,29,05,44,6.50
2016,04,29,05,45,6.50
2016,04,29,05,46,6.40
2016,04,29,05,47,6.40
2016,04,29,05,48,6.40
2016,04,29,05,49,6.40
2016,04,29,05,50,6.40
2016,04,29,05,51,6.40
2016,04,29,05,52,6.40
2016,04,29,05,53,6.40
2016,04,29,05,54,6.40
2016,04,29,05,55,6.40
2016,04,29,05,56,6.40
2016,04,29,05,57,6.40
2016,04,29,05,58,6.40
2016,04,29,05,59,6.40
2016,04,29,06,00,6.40
2016,04,29,06,01,6.40
2016,04,29,06,02,6.40
2016,04,29,06,03,6.40
2016,04,29,06,04,6.40
2016,04,29,06,05,6.40
2016,04,29,06,06,6.40
2016,04,29,06,07,6.40
2016,04,29,06,08,6.40
2016,04,29,06,09,6.40
2016,04,29,06,10,6.40
2016,04,29,06,11,6.40
2016,04,29,06,12,6.30
2016,04,29,06,13,6.30
2016,04,29,06,14,6.30
2016,04,29,06,15,6.30
2016,04,29,06,16,6.30
2016,04,29,06,17,6.30
2016,04,29,06,18,6.30
2016,04,29,06,19,6.30
2016,04,29,06,20,6.30
2016,04,29,06,21,6.30
2016,04,29,06,22,6.30
2016,04,29,06,23,6.30
2016,04,29,06,24,6.30
2016,04,29,06,25,6.30
2016,04,29,06,26,6.30
2016,04,29,06,27,6.20
2016,04,29,06,28,6.20
2016,04,29,06,29,6.20
2016,04,29,06,30,6.20
2016,04,29,06,31,6.20
2016,04,29,06,32,6.30
2016,04,29,06,33,6.30
2016,04,29,06,34,6.20
2016,04,29,06,35,6.30
2016,04,29,06,36,6.30
2016,04,29,06,37,6.30
2016,04,29,06,38,6.30
2016,04,29,06,39,6.30
2016,04,29,06,40,6.30
2016,04,29,06,41,6.30
2016,04,29,06,42,6.30
2016,04,29,06,43,6.30
2016,04,29,06,44,6.30
2016,04,29,06,45,6.30
2016,04,29,06,46,6.30
2016,04,29,06,47,6.30
2016,04,29,06,48,6.30
2016,04,29,06,49,6.30
2016,04,29,06,50,6.30
2016,04,29,06,51,6.30
2016,04,29,06,52,6.30
2016,04,29,06,53,6.30
2016,04,29,06,54,6.30
2016,04,29,06,55,6.30
2016,04,29,06,56,6.30
2016,04,29,06,57,6.30
2016,04,29,06,58,6.30
2016,04,29,06,59,6.30
2016,04,29,07,00,6.40
2016,04,29,07,01,6.40
2016,04,29,07,02,6.40
2016,04,29,07,03,6.40
2016,04,29,07,04,6.40
2016,04,29,07,05,6.40
2016,04,29,07,06,6.40
2016,04,29,07,07,6.50
2016,04,29,07,08,6.50
2016,04,29,07,09,6.50
2016,04,29,07,10,6.60
2016,04,29,07,11,6.60
2016,04,29,07,12,6.60
2016,04,29,07,13,6.60
2016,04,29,07,14,6.70
2016,04,29,07,15,6.70
2016,04,29,07,16,6.70
2016,04,29,07,17,6.70
2016,04,29,07,18,6.70
2016,04,29,07,19,6.70
2016,04,29,07,20,6.70
2016,04,29,07,21,6.70
2016,04,29,07,22,6.70
2016,04,29,07,23,6.70
2016,04,29,07,24,6.70
2016,04,29,07,25,6.70
2016,04,29,07,26,6.70
2016,04,29,07,27,6.80
2016,04,29,07,28,6.80
2016,04,29,07,29,6.80
2016,04,29,07,30,6.80
2016,04,29,07,31,6.90
2016,04,29,07,32,6.90
2016,04,29,07,33,6.90
2016,04,29,07,34,6.90
2016,04,29,07,35,7.00
2016,04,29,07,36,7.00
2016,04,29,07,37,7.00
2016,04,29,07,38,7.10
2016,04,29,07,39,7.10
2016,04,29,07,40,7.10
2016,04,29,07,41,7.10
2016,04,29,07,42,7.20
2016,04,29,07,43,7.20
2016,04,29,07,44,7.30
2016,04,29,07,45,7.30
2016,04,29,07,46,7.30
2016,04,29,07,47,7.40
2016,04,29,07,48,7.40
2016,04,29,07,49,7.40
2016,04,29,07,50,7.40
2016,04,29,07,51,7.50
2016,04,29,07,52,7.60
2016,04,29,07,53,7.70
2016,04,29,07,54,7.70
2016,04,29,07,55,7.80
2016,04,29,07,56,7.80
2016,04,29,07,57,7.80
2016,04,29,07,58,7.80
2016,04,29,07,59,7.90
2016,04,29,08,00,7.90
2016,04,29,08,01,8.00
2016,04,29,08,02,8.00
2016,04,29,08,03,8.00
2016,04,29,08,04,8.10
2016,04,29,08,05,8.10
2016,04,29,08,06,8.10
2016,04,29,08,07,8.20
2016,04,29,08,08,8.20
2016,04,29,08,09,8.20
2016,04,29,08,10,8.30
2016,04,29,08,11,8.30
2016,04,29,08,12,8.30
2016,04,29,08,13,8.40
2016,04,29,08,14,8.40
2016,04,29,08,15,8.40
2016,04,29,08,16,8.50
2016,04,29,08,17,8.50
2016,04,29,08,18,8.60
2016,04,29,08,19,8.60
2016,04,29,08,20,8.70
2016,04,29,08,21,8.70
2016,04,29,08,22,8.80
2016,04,29,08,23,8.80
2016,04,29,08,24,8.80
2016,04,29,08,25,8.90
2016,04,29,08,26,8.90
2016,04,29,08,27,8.90
2016,04,29,08,28,8.90
2016,04,29,08,29,8.90
2016,04,29,08,30,8.90
2016,04,29,08,31,8.90
2016,04,29,08,32,8.90
2016,04,29,08,33,9.00
2016,04,29,08,34,9.00
2016,04,29,08,35,9.00
2016,04,29,08,36,9.10
2016,04,29,08,37,9.10
2016,04,29,08,38,9.10
2016,04,29,08,39,9.10
2016,04,29,08,40,9.10
2016,04,29,08,41,9.10
2016,04,29,08,42,9.10
2016,04,29,08,43,9.10
2016,04,29,08,44,9.20
2016,04,29,08,45,9.20
2016,04,29,08,46,9.20
2016,04,29,08,47,9.20
2016,04,29,08,48,9.20
2016,04,29,08,49,9.20
2016,04,29,08,50,9.20
2016,04,29,08,51,9.20
2016,04,29,08,52,9.20
2016,04,29,08,53,9.20
2016,04,29,08,54,9.30
2016,04,29,08,55,9.30
2016,04,29,08,56,9.30
2016,04,29,08,57,9.30
2016,04,29,08,58,9.30
2016,04,29,08,59,9.30
2016,04,29,09,00,9.30
2016,04,29,09,01,9.30
2016,04,29,09,02,9.30
2016,04,29,09,03,9.30
2016,04,29,09,04,9.30
2016,04,29,09,05,9.40
2016,04,29,09,06,9.40
2016,04,29,09,07,9.50
2016,04,29,09,08,9.60
2016,04,29,09,09,9.60
2016,04,29,09,10,9.70
2016,04,29,09,11,9.80
2016,04,29,09,12,9.90
2016,04,29,09,13,9.90
2016,04,29,09,14,10.00
2016,04,29,09,15,10.10
2016,04,29,09,16,10.20
2016,04,29,09,17,10.30
2016,04,29,09,18,10.40
2016,04,29,09,19,10.50
2016,04,29,09,20,10.50
2016,04,29,09,21,10.60
2016,04,29,09,22,10.70
2016,04,29,09,23,10.70
2016,04,29,09,24,10.80
2016,04,29,09,25,10.90
2016,04,29,09,26,11.00
2016,04,29,09,27,11.10
2016,04,29,09,28,11.20
2016,04,29,09,29,11.20
2016,04,29,09,30,11.30
2016,04,29,09,31,11.30
2016,04,29,09,32,11.30
2016,04,29,09,33,11.30
2016,04,29,09,34,11.20
2016,04,29,09,35,11.20
2016,04,29,09,36,11.10
2016,04,29,09,37,11.10
2016,04,29,09,38,11.20
2016,04,29,09,39,11.20
2016,04,29,09,40,11.20
2016,04,29,09,41,11.20
2016,04,29,09,42,11.20
2016,04,29,09,43,11.20
2016,04,29,09,44,11.30
2016,04,29,09,45,11.30
2016,04,29,09,46,11.30
2016,04,29,09,47,11.30
2016,04,29,09,48,11.30
2016,04,29,09,49,11.30
2016,04,29,09,50,11.40
2016,04,29,09,51,11.40
2016,04,29,09,52,11.40
2016,04,29,09,53,11.40
2016,04,29,09,54,11.40
2016,04,29,09,55,11.50
2016,04,29,09,56,11.60
2016,04,29,09,57,11.70
2016,04,29,09,58,11.80
2016,04,29,09,59,11.90
2016,04,29,10,00,11.90
2016,04,29,10,01,11.90
2016,04,29,10,02,11.90
2016,04,29,10,03,11.90
2016,04,29,10,04,11.90
2016,04,29,10,05,11.90
2016,04,29,10,06,11.90
2016,04,29,10,07,12.00
2016,04,29,10,08,12.10
2016,04,29,10,09,12.20
2016,04,29,10,10,12.30
2016,04,29,10,11,12.30
2016,04,29,10,12,12.30
2016,04,29,10,13,12.20
2016,04,29,10,14,12.20
2016,04,29,10,15,12.20
2016,04,29,10,16,12.20
2016,04,29,10,17,12.20
2016,04,29,10,18,12.10
2016,04,29,10,19,12.10
2016,04,29,10,20,12.10
2016,04,29,10,21,12.10
2016,04,29,10,22,12.10
2016,04,29,10,23,12.20
2016,04,29,10,24,12.20
2016,04,29,10,25,12.30
2016,04,29,10,26,12.30
2016,04,29,10,27,12.30
2016,04,29,10,28,12.40
2016,04,29,10,29,12.40
2016,04,29,10,30,12.40
2016,04,29,10,31,12.40
2016,04,29,10,32,12.40
2016,04,29,10,33,12.40
2016,04,29,10,34,12.30
2016,04,29,10,35,12.30
2016,04,29,10,36,12.30
2016,04,29,10,37,12.30
2016,04,29,10,38,12.40
2016,04,29,10,39,12.50
2016,04,29,10,40,12.60
2016,04,29,10,41,12.60
2016,04,29,10,42,12.70
2016,04,29,10,43,12.70
2016,04,29,10,44,12.70
2016,04,29,10,45,12.70
2016,04,29,10,46,12.70
2016,04,29,10,47,12.60
2016,04,29,10,48,12.60
2016,04,29,10,49,12.60
2016,04,29,10,50,12.70
2016,04,29,10,51,12.70
2016,04,29,10,52,12.80
2016,04,29,10,53,12.80
2016,04,29,10,54,12.80
2016,04,29,10,55,12.90
2016,04,29,10,56,12.90
2016,04,29,10,57,13.00
2016,04,29,10,58,13.00
2016,04,29,10,59,13.10
2016,04,29,11,00,13.20
2016,04,29,11,01,13.30
2016,04,29,11,02,13.40
2016,04,29,11,03,13.40
2016,04,29,11,04,13.50
2016,04,29,11,05,13.60
2016,04,29,11,06,13.60
2016,04,29,11,07,13.70
2016,04,29,11,08,13.80
2016,04,29,11,09,13.90
2016,04,29,11,10,13.90
2016,04,29,11,11,14.00
2016,04,29,11,12,14.00
2016,04,29,11,13,14.10
2016,04,29,11,14,14.20
2016,04,29,11,15,14.20
2016,04,29,11,16,14.20
2016,04,29,11,17,14.20
2016,04,29,11,18,14.10
2016,04,29,11,19,14.10
2016,04,29,11,20,14.10
2016,04,29,11,21,14.10
2016,04,29,11,22,14.20
2016,04,29,11,23,14.20
2016,04,29,11,24,14.20
2016,04,29,11,25,14.20
2016,04,29,11,26,14.20
2016,04,29,11,27,14.20
2016,04,29,11,28,14.20
2016,04,29,11,29,14.20
2016,04,29,11,30,14.30
2016,04,29,11,31,14.40
2016,04,29,11,32,14.40
2016,04,29,11,33,14.50
2016,04,29,11,34,14.60
2016,04,29,11,35,14.50
2016,04,29,11,36,14.50
2016,04,29,11,37,14.50
2016,04,29,11,38,14.60
2016,04,29,11,39,14.70
2016,04,29,11,40,14.70
2016,04,29,11,41,14.80
2016,04,29,11,42,14.90
2016,04,29,11,43,15.00
2016,04,29,11,44,15.10
2016,04,29,11,45,15.20
2016,04,29,11,46,15.20
2016,04,29,11,47,15.30
2016,04,29,11,48,15.40
2016,04,29,11,49,15.40
2016,04,29,11,50,15.30
2016,04,29,11,51,15.30
2016,04,29,11,52,15.30
2016,04,29,11,53,15.30
2016,04,29,11,54,15.30
2016,04,29,11,55,15.40
2016,04,29,11,56,15.50
2016,04,29,11,57,15.60
2016,04,29,11,58,15.70
2016,04,29,11,59,15.80
2016,04,29,12,00,15.80
2016,04,29,12,01,15.90
2016,04,29,12,02,16.00
2016,04,29,12,03,16.10
2016,04,29,12,04,16.20
2016,04,29,12,05,16.30
2016,04,29,12,06,16.40
2016,04,29,12,07,16.50
2016,04,29,12,08,16.60
2016,04,29,12,09,16.60
2016,04,29,12,10,16.50
2016,04,29,12,11,16.50
2016,04,29,12,12,16.50
2016,04,29,12,13,16.60
2016,04,29,12,14,16.60
2016,04,29,12,15,16.60
2016,04,29,12,16,16.70
2016,04,29,12,17,16.80
2016,04,29,12,18,16.80
2016,04,29,12,19,16.80
2016,04,29,12,20,16.80
2016,04,29,12,21,16.70
2016,04,29,12,22,16.60
2016,04,29,12,23,16.50
2016,04,29,12,24,16.50
2016,04,29,12,25,16.50
2016,04,29,12,26,16.50
2016,04,29,12,27,16.50
2016,04,29,12,28,16.40
2016,04,29,12,29,16.50
2016,04,29,12,30,16.50
2016,04,29,12,31,16.50
2016,04,29,12,32,16.50
2016,04,29,12,33,16.50
2016,04,29,12,34,16.40
2016,04,29,12,35,16.40
2016,04,29,12,36,16.40
2016,04,29,12,37,16.40
2016,04,29,12,38,16.40
2016,04,29,12,39,16.40
2016,04,29,12,40,16.40
2016,04,29,12,41,16.40
2016,04,29,12,42,16.40
2016,04,29,12,43,16.50
2016,04,29,12,44,16.50
2016,04,29,12,45,16.60
2016,04,29,12,46,16.60
2016,04,29,12,47,16.70
2016,04,29,12,48,16.70
2016,04,29,12,49,16.80
2016,04,29,12,50,16.80
2016,04,29,12,51,16.80
2016,04,29,12,52,16.80
2016,04,29,12,53,16.80
2016,04,29,12,54,16.80
2016,04,29,12,55,16.80
2016,04,29,12,56,16.70
2016,04,29,12,57,16.80
2016,04,29,12,58,16.80
2016,04,29,12,59,16.90
2016,04,29,13,00,16.90
2016,04,29,13,01,16.90
2016,04,29,13,02,17.00
2016,04,29,13,03,17.00
2016,04,29,13,04,17.10
2016,04,29,13,05,17.10
2016,04,29,13,06,17.10
2016,04,29,13,07,17.20
2016,04,29,13,08,17.30
2016,04,29,13,09,17.40
2016,04,29,13,10,17.50
2016,04,29,13,11,17.60
2016,04,29,13,12,17.80
2016,04,29,13,13,17.90
2016,04,29,13,14,18.00
2016,04,29,13,15,17.90
2016,04,29,13,16,17.80
2016,04,29,13,17,17.70
2016,04,29,13,18,17.60
2016,04,29,13,19,17.60
2016,04,29,13,20,17.60
2016,04,29,13,21,17.60
2016,04,29,13,22,17.70
2016,04,29,13,23,17.60
2016,04,29,13,24,17.50
2016,04,29,13,25,17.40
2016,04,29,13,26,17.30
2016,04,29,13,27,17.30
2016,04,29,13,28,17.20
2016,04,29,13,29,17.20
2016,04,29,13,30,17.20
2016,04,29,13,31,17.20
2016,04,29,13,32,17.30
2016,04,29,13,33,17.20
2016,04,29,13,34,17.00
2016,04,29,13,35,16.90
2016,04,29,13,36,16.80
2016,04,29,13,37,16.70
2016,04,29,13,38,16.70
2016,04,29,13,39,16.70
2016,04,29,13,40,16.80
2016,04,29,13,41,16.80
2016,04,29,13,42,16.80
2016,04,29,13,43,16.80
2016,04,29,13,44,16.80
2016,04,29,13,45,16.80
2016,04,29,13,46,16.80
2016,04,29,13,47,16.80
2016,04,29,13,48,16.80
2016,04,29,13,49,16.80
2016,04,29,13,50,16.80
2016,04,29,13,51,16.80
2016,04,29,13,52,16.90
2016,04,29,13,53,17.00
2016,04,29,13,54,17.10
2016,04,29,13,55,17.20
2016,04,29,13,56,17.30
2016,04,29,13,57,17.30
2016,04,29,13,58,17.30
2016,04,29,13,59,17.20
2016,04,29,14,00,17.20
2016,04,29,14,01,17.20
2016,04,29,14,02,17.20
2016,04,29,14,03,17.20
2016,04,29,14,04,17.20
2016,04,29,14,05,17.10
2016,04,29,14,06,17.10
2016,04,29,14,07,17.10
2016,04,29,14,08,17.10
2016,04,29,14,09,17.10
2016,04,29,14,10,17.20
2016,04,29,14,11,17.30
2016,04,29,14,12,17.30
2016,04,29,14,13,17.30
2016,04,29,14,14,17.30
2016,04,29,14,15,17.30
2016,04,29,14,16,17.40
2016,04,29,14,17,17.50
2016,04,29,14,18,17.60
2016,04,29,14,19,17.60
2016,04,29,14,20,17.70
2016,04,29,14,21,17.70
2016,04,29,14,22,17.70
2016,04,29,14,23,17.70
2016,04,29,14,24,17.70
2016,04,29,14,25,17.80
2016,04,29,14,26,17.80
2016,04,29,14,27,17.70
2016,04,29,14,28,17.70
2016,04,29,14,29,17.60
2016,04,29,14,30,17.50
2016,04,29,14,31,17.50
2016,04,29,14,32,17.50
2016,04,29,14,33,17.50
2016,04,29,14,34,17.60
2016,04,29,14,35,17.60
2016,04,29,14,36,17.70
2016,04,29,14,37,17.70
2016,04,29,14,38,17.80
2016,04,29,14,39,17.80
2016,04,29,14,40,17.90
2016,04,29,14,41,17.90
2016,04,29,14,42,17.80
2016,04,29,14,43,17.80
2016,04,29,14,44,17.80
2016,04,29,14,45,17.90
2016,04,29,14,46,17.90
2016,04,29,14,47,18.00
2016,04,29,14,48,18.10
2016,04,29,14,49,18.20
2016,04,29,14,50,18.30
2016,04,29,14,51,18.30
2016,04,29,14,52,18.30
2016,04,29,14,53,18.30
2016,04,29,14,54,18.30
2016,04,29,14,55,18.40
2016,04,29,14,56,18.50
2016,04,29,14,57,18.50
2016,04,29,14,58,18.60
2016,04,29,14,59,18.60
2016,04,29,15,00,18.60
2016,04,29,15,01,18.60
2016,04,29,15,02,18.60
2016,04,29,15,03,18.60
2016,04,29,15,04,18.70
2016,04,29,15,05,18.70
2016,04,29,15,06,18.70
2016,04,29,15,07,18.80
2016,04,29,15,08,18.90
2016,04,29,15,09,19.00
2016,04,29,15,10,19.00
2016,04,29,15,11,18.90
2016,04,29,15,12,18.80
2016,04,29,15,13,18.70
2016,04,29,15,14,18.60
2016,04,29,15,15,18.50
2016,04,29,15,16,18.40
2016,04,29,15,17,18.40
2016,04,29,15,18,18.50
2016,04,29,15,19,18.60
2016,04,29,15,20,18.70
2016,04,29,15,21,18.80
2016,04,29,15,22,18.80
2016,04,29,15,23,18.80
2016,04,29,15,24,18.80
2016,04,29,15,25,18.90
2016,04,29,15,26,19.00
2016,04,29,15,27,19.10
2016,04,29,15,28,19.10
2016,04,29,15,29,19.10
2016,04,29,15,30,19.10
2016,04,29,15,31,19.00
2016,04,29,15,32,19.00
2016,04,29,15,33,18.90
2016,04,29,15,34,18.80
2016,04,29,15,35,18.80
2016,04,29,15,36,18.80
2016,04,29,15,37,18.80
2016,04,29,15,38,18.80
2016,04,29,15,39,18.80
2016,04,29,15,40,18.90
2016,04,29,15,41,18.90
2016,04,29,15,42,18.90
2016,04,29,15,43,18.80
2016,04,29,15,44,18.70
2016,04,29,15,45,18.50
2016,04,29,15,46,18.50
2016,04,29,15,47,18.40
2016,04,29,15,48,18.40
2016,04,29,15,49,18.30
2016,04,29,15,50,18.30
2016,04,29,15,51,18.20
2016,04,29,15,52,18.20
2016,04,29,15,53,18.20
2016,04,29,15,54,18.20
2016,04,29,15,55,18.30
2016,04,29,15,56,18.30
2016,04,29,15,57,18.30
2016,04,29,15,58,18.40
2016,04,29,15,59,18.40
2016,04,29,16,00,18.50
2016,04,29,16,01,18.50
2016,04,29,16,02,18.60
2016,04,29,16,03,18.60
2016,04,29,16,04,18.60
2016,04,29,16,05,18.60
2016,04,29,16,06,18.60
2016,04,29,16,07,18.60
2016,04,29,16,08,18.50
2016,04,29,16,09,18.40
2016,04,29,16,10,18.40
2016,04,29,16,11,18.30
2016,04,29,16,12,18.40
2016,04,29,16,13,18.40
2016,04,29,16,14,18.50
2016,04,29,16,15,18.70
2016,04,29,16,16,18.80
2016,04,29,16,17,18.80
2016,04,29,16,18,18.80
2016,04,29,16,19,18.70
2016,04,29,16,20,18.70
2016,04,29,16,21,18.70
2016,04,29,16,22,18.60
2016,04,29,16,23,18.50
2016,04,29,16,24,18.40
2016,04,29,16,25,18.40
2016,04,29,16,26,18.30
2016,04,29,16,27,18.30
2016,04,29,16,28,18.40
2016,04,29,16,29,18.40
2016,04,29,16,30,18.40
2016,04,29,16,31,18.40
2016,04,29,16,32,18.30
2016,04,29,16,33,18.30
2016,04,29,16,34,18.30
2016,04,29,16,35,18.30
2016,04,29,16,36,18.30
2016,04,29,16,37,18.30
2016,04,29,16,38,18.40
2016,04,29,16,39,18.40
2016,04,29,16,40,18.50
2016,04,29,16,41,18.50
2016,04,29,16,42,18.60
2016,04,29,16,43,18.60
2016,04,29,16,44,18.50
2016,04,29,16,45,18.50
2016,04,29,16,46,18.60
2016,04,29,16,47,18.50
2016,04,29,16,48,18.50
2016,04,29,16,49,18.40
2016,04,29,16,50,18.40
2016,04,29,16,51,18.30
2016,04,29,16,52,18.30
2016,04,29,16,53,18.30
2016,04,29,16,54,18.30
2016,04,29,16,55,18.30
2016,04,29,16,56,18.30
2016,04,29,16,57,18.30
2016,04,29,16,58,18.30
2016,04,29,16,59,18.30
2016,04,29,17,00,18.30
2016,04,29,17,01,18.30
2016,04,29,17,02,18.40
2016,04,29,17,03,18.40
2016,04,29,17,04,18.40
2016,04,29,17,05,18.40
2016,04,29,17,06,18.50
2016,04,29,17,07,18.50
2016,04,29,17,08,18.50
2016,04,29,17,09,18.60
2016,04,29,17,10,18.60
2016,04,29,17,11,18.70
2016,04,29,17,12,18.60
2016,04,29,17,13,18.60
2016,04,29,17,14,18.50
2016,04,29,17,15,18.40
2016,04,29,17,16,18.30
2016,04,29,17,17,18.30
2016,04,29,17,18,18.20
2016,04,29,17,19,18.20
2016,04,29,17,20,18.20
2016,04,29,17,21,18.20
2016,04,29,17,22,18.20
2016,04,29,17,23,18.20
2016,04,29,17,24,18.20
2016,04,29,17,25,18.10
2016,04,29,17,26,18.20
2016,04,29,17,27,18.20
2016,04,29,17,28,18.20
2016,04,29,17,29,18.20
2016,04,29,17,30,18.20
2016,04,29,17,31,18.30
2016,04,29,17,32,18.30
2016,04,29,17,33,18.40
2016,04,29,17,34,18.40
2016,04,29,17,35,18.40
2016,04,29,17,36,18.40
2016,04,29,17,37,18.40
2016,04,29,17,38,18.40
2016,04,29,17,39,18.40
2016,04,29,17,40,18.50
2016,04,29,17,41,18.50
2016,04,29,17,42,18.50